Probability
17 18 18 15 13 11 12 13 13 11 12 17 20 18 14 11 10 9 6 4 2 1 0 1 2 3 5 6 6 5 3 1 0 0 0 0 0 0 0 0 0 0 0
16 17 17 15 12 11 11 12 13 13 14 18 19 18 14 11 9 9 7 5 3 2 1 3 6 7 6 6 6 7 5 3 1 0 0 0 0 0 0 0 0 0 0
14 15 14 13 11 9 9 9 11 12 12 13 13 11 10 9 7 7 7 6 4 3 3 6 9 11 9 7 5 6 7 5 3 1 0 0 0 0 0 0 0 0 0
10 10 10 9 7 6 6 7 8 7 7 6 5 4 6 7 5 4 6 6 5 4 4 7 10 12 10 7 5 6 8 7 4 2 1 0 1 1 1 0 0 0 0
4 4 5 5 4 3 3 4 4 4 4 3 3 3 5 6 4 3 4 5 5 5 4 6 10 11 9 7 8 10 10 8 5 3 1 0 1 2 1 0 0 0 0
1 1 2 2 1 1 1 1 2 2 3 3 3 4 5 5 4 3 2 4 5 5 5 6 9 11 10 9 9 11 11 9 6 4 3 1 1 1 1 0 0 0 0
0 0 0 0 0 0 0 0 0 1 1 2 3 4 5 4 3 3 3 3 5 6 6 6 8 10 11 10 8 7 8 9 7 6 5 3 1 0 0 0 0 0 0
0 0 0 0 0 0 0 0 0 0 0 1 2 3 3 2 2 3 3 4 5 6 6 5 6 8 10 12 9 6 7 8 8 8 6 5 2 0 0 0 0 0 0
0 0 0 0 0 0 0 0 0 0 0 0 1 2 1 0 1 2 3 3 3 4 5 4 3 5 8 12 11 8 6 6 8 8 7 6 4 1 0 0 0 0 0
0 0 0 0 0 0 0 0 0 0 0 0 0 0 0 0 0 1 2 1 1 1 3 3 3 4 6 10 11 8 3 4 5 5 7 8 6 3 1 0 0 0 0
0 0 0 0 0 0 0 0 0 0 0 0 0 0 0 0 0 0 0 0 0 0 1 3 4 6 6 8 8 5 1 1 2 3 6 9 9 6 4 1 0 0 0
0 0 0 0 0 0 0 0 0 0 0 0 0 0 0 0 0 0 0 0 0 0 1 2 4 6 7 7 6 3 0 0 0 1 5 10 11 9 7 3 1 0 0
0 0 0 0 0 0 0 0 0 0 0 0 0 0 0 0 0 0 0 0 0 0 0 1 1 3 5 6 5 3 1 0 0 0 3 8 10 8 6 4 2 0 0
0 0 0 0 0 0 0 0 0 0 0 0 0 0 0 0 0 0 0 0 0 0 0 0 0 1 4 5 4 3 3 1 0 0 1 4 5 4 3 3 2 0 0
0 0 0 0 0 0 0 0 0 0 0 0 0 0 0 0 0 0 0 0 0 0 0 0 0 1 3 3 1 2 3 2 0 0 0 1 1 1 1 1 1 0 0
0 0 0 0 0 0 0 0 0 0 0 0 0 0 0 0 0 0 0 0 0 0 0 0 0 0 1 1 0 1 2 2 1 0 0 0 0 0 0 0 0 0 0
0 0 0 0 0 0 0 0 0 0 0 0 0 0 0 0 0 0 0 0 0 0 0 0 0 0 0 0 0 0 1 2 2 1 0 0 0 0 0 0 0 0 0
0 0 0 0 0 0 0 0 0 0 0 0 0 0 0 0 0 0 0 0 0 0 0 0 0 0 0 0 0 0 1 1 1 1 0 0 0 0 0 0 0 0 0
0 0 0 0 0 0 0 0 0 0 0 0 0 0 0 0 0 0 0 0 0 0 0 0 0 0 0 0 0 0 0 0 0 0 0 0 0 0 0 0 0 0 0
0 0 0 0 0 0 0 0 0 0 0 0 0 0 0 0 0 0 0 0 0 0 0 0 0 0 0 0 0 0 0 0 0 0 0 0 0 0 0 0 0 0 0
0 0 0 0 0 0 0 0 0 0 0 0 0 0 0 0 0 0 0 0 0 0 0 0 0 0 0 0 0 0 0 0 0 0 0 0 0 0 0 0 0 0 0
0 0 0 0 0 0 0 0 0 0 0 0 0 0 0 0 0 0 0 0 0 0 0 0 0 0 0 0 0 0 0 0 0 0 0 0 0 0 0 0 0 0 0
0 0 0 0 0 0 0 0 0 0 0 0 0 0 0 0 0 0 0 0 0 0 0 0 0 1 0 0 0 0 1 0 0 0 0 0 0 0 0 0 0 0 0
0 0 0 0 0 0 0 0 0 0 0 0 0 0 0 0 0 0 0 0 0 0 0 0 0 0 0 0 0 0 0 0 0 0 0 0 0 0 0 0 0 0 0
0 0 0 0 0 0 0 0 0 0 0 0 0 0 0 0 0 0 0 0 0 0 0 0 0 0 0 0 0 0 0 0 0 0 0 0 0 0 0 0 0 0 0
0 0 0 0 0 0 0 0 0 0 0 0 0 0 0 0 0 0 0 0 0 0 0 0 0 0 0 0 0 0 0 0 0 0 0 0 0 0 0 0 0 0 0
Wind_Speed
3 3 2 2 3 3 3 4 4 6 7 7 7 8 9 9 8 7 5 14 16 16 18 19 20 21 21 20 20 19 19 19 17 16 15 15 15 14 14 13 12 11 11
2 2 2 3 3 3 3 3 5 5 5 5 7 8 9 9 9 9 7 9 16 16 17 18 20 21 22 21 21 21 20 19 17 17 16 15 15 14 14 14 13 12 11
1 1 2 2 2 3 3 3 4 4 5 5 7 9 8 10 9 10 9 7 8 14 17 18 18 20 22 22 22 22 20 19 18 18 17 16 15 15 14 14 14 13 12
0 0 1 1 2 2 2 2 3 3 4 5 6 6 7 7 10 10 9 8 7 7 11 17 18 19 22 23 24 23 21 20 20 19 19 18 17 16 15 15 14 14 13
0 0 1 2 2 1 2 3 2 3 4 5 6 6 6 7 8 10 10 10 9 9 8 11 16 19 22 24 24 23 22 21 21 21 20 20 19 18 17 16 15 15 14
0 0 1 1 1 1 2 2 3 3 4 4 6 6 6 7 7 8 10 9 9 11 10 10 9 12 20 21 21 22 22 22 21 22 21 21 20 19 18 17 16 16 16
1 1 1 1 1 1 2 3 2 3 3 2 3 4 5 7 8 8 8 8 9 10 10 10 8 7 8 18 20 20 22 22 22 22 21 21 20 19 19 18 17 17 16
2 2 2 2 2 2 3 2 2 2 2 2 2 2 3 3 4 7 7 8 9 7 9 11 10 10 8 7 11 19 21 21 22 22 21 20 20 19 19 19 18 18 17
2 2 3 3 3 2 3 3 2 2 3 3 3 3 2 3 3 3 5 6 7 6 8 8 11 11 11 9 9 15 20 20 21 22 21 21 20 19 19 19 19 19 18
3 3 3 3 3 3 3 4 3 2 3 3 3 3 4 3 3 3 2 3 5 6 8 8 9 10 10 9 10 13 17 18 19 20 21 21 20 20 19 20 20 20 19
4 4 4 3 3 3 4 4 3 3 2 3 2 2 3 3 4 4 4 2 2 4 5 7 7 7 9 9 8 12 16 17 17 18 19 19 20 20 20 20 20 20 20
4 5 4 4 4 3 4 4 4 4 3 3 3 2 2 2 2 3 4 3 3 2 3 4 5 6 7 8 11 13 15 15 15 16 16 17 18 18 19 19 20 20 20
3 5 4 4 4 4 5 4 4 4 4 4 3 3 3 3 2 2 3 3 3 2 2 2 4 5 6 6 8 13 13 14 14 14 15 15 15 16 16 17 18 18 18
5 5 5 5 6 5 5 4 4 5 4 5 5 4 3 3 2 2 2 2 2 2 2 2 1 3 4 4 6 10 9 13 13 13 13 14 14 14 14 14 15 15 15
5 5 5 5 6 5 5 4 4 5 4 5 5 5 4 3 3 3 2 2 3 2 2 2 1 2 3 3 5 6 6 10 12 12 12 12 12 12 12 12 12 12 12
5 5 6 6 6 6 5 5 5 5 5 5 4 5 5 4 3 3 3 3 3 3 3 1 1 1 2 2 4 5 5 9 10 11 11 11 11 11 11 10 10 10 11
6 6 6 6 6 7 6 5 6 6 6 6 6 6 7 5 4 3 3 3 3 3 3 2 1 0 1 3 3 4 4 5 6 10 11 10 10 10 9 9 9 9 9
6 6 7 7 7 7 6 6 7 7 7 7 7 7 8 6 6 5 4 4 3 3 3 3 2 1 1 3 4 5 4 4 5 8 9 9 9 8 8 8 8 8 8
7 7 6 7 8 8 8 8 8 8 8 8 8 8 8 7 8 6 5 5 4 4 3 3 2 1 1 3 4 4 5 5 5 6 8 8 8 8 8 7 7 7 7
7 7 7 7 8 8 9 9 8 8 8 8 8 9 9 9 9 8 7 6 5 5 4 4 3 2 2 3 4 5 4 4 4 4 5 6 8 8 7 7 7 8 7
8 7 8 8 8 7 8 8 8 9 8 8 8 8 9 11 13 10 7 7 6 5 4 4 4 3 3 4 4 4 5 5 3 3 4 4 4 4 4 6 7 8 8
8 7 8 9 9 8 9 12 10 8 8 9 9 8 9 11 13 14 14 13 11 8 7 5 4 5 5 4 4 5 6 5 4 4 4 3 3 3 3 3 6 8 8
7 8 8 8 9 10 13 14 14 9 9 9 9 9 8 8 9 9 11 13 13 14 12 7 7 6 6 6 7 7 7 6 4 6 5 3 3 3 2 3 7 8 9
7 8 9 9 9 10 13 13 14 10 9 10 10 10 10 9 9 8 8 9 9 10 11 9 8 7 6 6 7 7 7 5 4 4 4 4 4 3 3 3 6 8 8
8 8 8 9 9 11 12 12 11 7 7 10 10 10 10 10 11 11 9 9 8 7 8 11 10 8 8 9 8 6 7 7 5 4 3 4 4 3 3 2 4 7 8
8 8 9 8 9 10 11 12 10 5 7 8 7 8 11 12 11 12 10 9 10 8 6 7 8 7 7 8 10 9 8 8 6 5 5 5 5 5 4 2 2 4 5
Wind_Direction
231 231 239 248 253 253 248 249 250 250 245 236 234 237 239 235 235 230 232 238 236 233 231 226 220 214 208 206 205 203 201 200 196 193 193 193 191 189 188 188 186 184 182
233 235 240 244 249 252 256 251 248 247 247 241 237 237 241 242 238 235 230 239 241 235 233 230 223 217 213 210 208 206 205 203 200 197 196 196 195 193 192 192 191 189 188
238 231 243 254 255 255 260 258 259 253 252 246 240 237 240 241 237 236 233 229 235 239 236 230 223 217 215 214 212 209 207 205 203 200 199 199 197 195 194 195 194 193 192
109 121 274 278 279 277 272 268 263 263 256 253 247 241 238 238 238 237 235 229 225 232 237 233 225 218 216 216 216 213 209 207 205 203 202 202 201 199 197 197 197 195 194
76 171 258 282 297 299 286 279 267 254 260 259 256 249 240 237 238 237 234 231 226 223 225 234 230 221 219 218 218 217 213 209 208 206 205 205 205 203 201 200 200 199 198
28 185 242 271 284 295 294 286 279 269 261 264 269 264 248 239 234 232 234 233 227 225 223 227 228 225 222 220 217 218 216 212 209 209 208 208 207 205 204 203 203 203 202
327 283 271 275 276 270 277 287 284 286 278 266 269 272 260 242 235 230 228 229 229 226 221 220 219 219 219 219 218 216 217 215 211 210 210 209 208 206 205 205 205 206 205
310 294 276 274 269 270 282 279 268 281 279 263 251 273 287 279 242 231 222 223 228 224 223 222 217 214 215 211 215 215 217 217 214 212 210 209 209 207 206 207 207 208 208
307 290 278 268 260 244 258 263 249 251 274 273 232 239 256 269 297 264 228 223 222 220 224 219 217 215 214 211 209 214 215 215 215 214 211 210 208 207 207 208 209 210 210
303 299 286 272 263 249 250 257 247 242 252 276 274 242 244 253 270 297 281 229 223 225 228 223 218 213 211 209 208 207 211 212 214 215 213 211 209 207 207 209 211 212 212
301 299 292 283 274 261 255 255 253 243 238 250 262 262 255 247 237 251 276 275 244 234 229 222 216 208 205 206 206 210 208 208 209 212 212 210 208 207 208 210 214 215 214
299 296 291 281 272 263 257 255 250 245 239 248 252 252 253 256 248 241 255 271 270 262 239 219 215 210 205 204 208 205 203 203 204 207 208 207 205 205 207 211 215 217 216
287 288 293 283 277 267 262 254 247 246 236 238 242 247 249 250 255 258 258 268 272 284 271 231 215 210 206 200 206 202 204 200 200 202 203 202 202 202 204 208 212 216 217
269 277 281 277 274 273 272 259 249 249 241 238 245 243 248 256 246 249 255 263 273 272 266 255 218 205 200 195 201 195 200 195 196 198 199 198 196 197 200 204 207 211 214
272 275 277 279 280 277 271 263 252 251 247 243 245 245 243 250 248 246 248 246 245 254 257 257 236 199 187 188 190 189 188 188 187 189 190 190 188 188 192 196 201 206 210
278 285 284 281 281 278 272 262 258 255 250 249 243 244 245 244 244 242 241 244 240 236 250 269 267 237 172 170 164 170 171 169 173 174 176 177 177 179 183 189 194 200 203
284 283 282 282 281 277 272 262 259 257 250 253 249 241 244 241 239 238 233 236 240 237 244 257 261 256 149 161 144 140 139 144 152 159 160 161 163 167 174 181 188 193 197
282 280 282 282 280 278 271 263 263 261 251 250 250 243 246 242 236 234 228 231 232 227 228 240 235 209 167 168 150 136 129 127 129 139 142 145 151 157 162 168 175 180 185
285 285 282 280 280 278 275 268 263 261 255 251 249 246 246 239 237 231 226 228 229 227 215 220 223 202 164 155 140 127 122 115 110 118 123 130 138 143 149 155 158 161 165
285 284 281 278 276 276 274 271 266 262 258 255 250 246 245 237 235 230 226 224 221 221 215 208 209 201 178 159 155 153 140 127 122 117 109 111 120 122 129 137 144 148 153
285 281 282 281 278 274 269 266 262 263 258 258 255 248 246 244 238 230 225 217 211 211 211 208 201 196 186 174 174 160 149 134 117 128 126 119 121 120 121 127 133 138 140
286 284 281 281 280 276 276 274 272 266 261 257 257 255 253 256 251 239 230 220 207 203 205 206 204 201 198 184 169 162 152 153 157 154 143 130 124 122 117 122 131 135 136
285 286 284 281 278 275 272 273 272 268 259 255 253 251 252 249 242 239 234 229 221 213 203 197 206 206 196 188 178 175 175 166 158 154 145 137 131 126 108 110 127 132 132
284 283 282 282 279 277 275 272 272 268 260 256 250 245 244 247 242 232 233 230 225 220 213 208 211 212 205 192 189 186 171 141 113 143 148 143 146 135 113 106 122 127 129
289 285 283 282 281 282 280 277 274 267 260 259 254 247 241 242 239 229 226 225 226 228 222 214 210 211 207 199 181 166 166 161 157 162 159 142 140 128 118 114 115 123 126
286 290 288 283 280 281 283 282 279 261 260 260 256 251 244 240 237 223 219 217 220 220 211 205 204 204 203 198 186 185 180 176 160 160 165 149 146 146 135 123 125 128 124